[Iaude] MPEC V185: 2023 VH6 [a=1.59,e=0.39,i=5.1,H=25.5]
    mpec at marsden.cfa.harvard.edu 
    mpec at marsden.cfa.harvard.edu
       
    Fri Nov 10 17:18:19 EST 2023
    
    
  
M.P.E.C. 2023-V185                            Issued 2023 November 10, 22:16 UT
     The Minor Planet Electronic Circulars contain information on unusual
         minor planets, routine data on comets and natural satellites,
         and occasional editorial announcements.  They are published
    on behalf of Division F of the International Astronomical Union by the
          Minor Planet Center, Smithsonian Astrophysical Observatory,
                          Cambridge, MA 02138, U.S.A.
			  
             Prepared using the Tamkin Foundation Computer Network
                              MPC at CFA.HARVARD.EDU
            URL https://www.minorplanetcenter.net/    ISSN 1523-6714
                                    2023 VH6                                    
Observations:
     K23V06H  C2023 11 02.31757 01 15 08.05 +38 20 06.8          21.3 GVEV185G96
     K23V06H  C2023 11 02.32275 01 15 08.32 +38 20 13.7                VEV185G96
     K23V06H* C2023 11 10.25699301 34 19.596+43 32 14.86         20.66GVEV185V00
     K23V06H  C2023 11 10.26251001 34 20.676+43 32 33.07         20.86GVEV185V00
     K23V06H  C2023 11 10.26804101 34 21.752+43 32 51.14         20.81GVEV185V00
     K23V06H  C2023 11 10.27353701 34 22.829+43 33 09.11         20.65GVEV185V00
     K23V06H KC2023 11 10.34884201 34 38.039+43 37 03.36         20.68GVEV185I52
     K23V06H KC2023 11 10.35022201 34 38.359+43 37 07.61         20.72GVEV185I52
     K23V06H KC2023 11 10.35160101 34 38.615+43 37 11.93         20.73GVEV185I52
     K23V06H KC2023 11 10.35299001 34 38.928+43 37 16.00         20.37GVEV185I52
     K23V06H 1C2023 11 10.74564 01 36 44.51 +43 59 02.0          20.5 VXEV185033
     K23V06H 1C2023 11 10.74685 01 36 44.81 +43 59 06.5          20.3 VXEV185033
     K23V06H 1C2023 11 10.74806 01 36 45.14 +43 59 11.4          20.4 VXEV185033
     K23V06H 1C2023 11 10.74939 01 36 45.48 +43 59 16.5          20.5 VXEV185033
     K23V06H KC2023 11 10.83897401 37 09.725+44 04 49.62         20.5 GVEV185J95
     K23V06H KC2023 11 10.84571801 37 11.431+44 05 15.76         20.3 GVEV185J95
     K23V06H KC2023 11 10.85081001 37 12.698+44 05 34.69         20.1 GVEV185J95
Observer details:
033 Karl Schwarzschild Observatory, Tautenburg.  Observers S. Melnikov, C.
    Hogner, F. Ludwig, M. Hartmann, B. Stecklum.  Measurer B. Stecklum.
    1.34-m f/3 Schmidt + CCD.
G96 Mt. Lemmon Survey.  Observer J. B. Fazekas.  Measurers B. Gray, D. Rankin,
    F. C. Shelly.  1.5-m reflector + 10K CCD.
I52 Steward Observatory, Mt. Lemmon Station.  Observer H. Groeller.  Measurers
    E. C. Beshore, D. Fay, J. B. Fazekas, D. C. Fuls, A. R. Gibbs, A. D.
    Grauer, H. Groeller, J. K. Hogan, R. A. Kowalski, S. M. Larson, G. J.
    Leonard, D. Rankin, R. L. Seaman, F. C. Shelly, K. W. Wierzchos.  1.0-m
    prime focus + CCD.
J95 Great Shefford.  Observer P. Birtwhistle.  0.41-m f/6.3 Schmidt-Cassegrain
    + CCD.
V00 Kitt Peak-Bok.  Observer K. W. Wierzchos.  Measurers M. J. Brucker, C. E.
    Woodward, D. Fay, J. B. Fazekas, D. C. Fuls, A. R. Gibbs, H. Groeller, J.
    K. Hogan, R. A. Kowalski, S. M. Larson, C. Lejoly, G. J. Leonard, R. A.
    Mastaler, R. S. McMillan, D. Rankin, R. L. Seaman, A. Serrano, F. C.
    Shelly, K. W. Wierzchos.  2.25-m reflector + 4x4K mosaic CCD.
Orbital elements:
2023 VH6                                                 Earth MOID = 0.0019 AU
Epoch 2023 Sept. 13.0 TT = JDT 2460200.5                MPC                     
M 312.78872              (2000.0)            P               Q                  
n   0.49365803     Peri.  204.39387     -0.00837494     -0.99666865             
a   1.5855694      Node   246.17128     +0.93140397     +0.02174813             
e   0.3949543      Incl.    5.08802     +0.36389079     -0.07860416             
P   2.00           H   25.54          G   0.15           U   7                  
Residuals in seconds of arc
231102 G96  0.6-  0.6+    231110 I52  0.1-  0.1-    231110 033  0.3+  0.1+
231102 G96  0.5+  0.5-    231110 I52  0.2+  0.1-    231110 033  0.2+  0.0
231110 V00  0.1-  0.1-    231110 I52  0.3-  0.1+    231110 J95  0.1-  0.1-
231110 V00  0.0   0.0     231110 I52  0.1-  0.1-    231110 J95  0.0   0.3+
231110 V00  0.0   0.0     231110 033  0.3+  0.1+    231110 J95  0.1-  0.1-
231110 V00  0.1+  0.1+    231110 033  0.1+  0.1-
Ephemeris:
2023 VH6                 a,e,i = 1.59, 0.39, 5                   q = 0.9593
Date    TT    R. A. (2000) Decl.     Delta      r    Elong.  Phase     V
2023 10 11    01 09 01.9 +31 08 52   0.2082  1.1912   155.5    20.3    23.5
...
2023 10 26    01 10 05.9 +35 28 00   0.1283  1.1112   154.2    22.9    22.4
...
2023 11 03    01 16 02.3 +38 39 44   0.09095 1.0727   151.1    26.6    21.7
...
2023 11 09    01 29 22.1 +42 26 04   0.06472 1.0465   148.5    29.7    21.0
2023 11 10    01 33 13.9 +43 17 33   0.06050 1.0423   148.1    30.2    20.8
2023 11 11    01 37 53.1 +44 14 59   0.05632 1.0383   147.7    30.7    20.7
...
2023 11 17    02 44 50.9 +53 16 14   0.03271 1.0157   144.6    34.4    19.6
...
2023 11 25    09 55 36.3 +27 56 36   0.01867 0.9908   100.4    78.5    19.6
...
2023 12 10    12 01 38.4 -20 04 50   0.07117 0.9627    69.8   106.2    23.7
A. U. Tomatic                (C) Copyright 2023 MPC           M.P.E.C. 2023-V185
    
    
More information about the Iaude
mailing list